{"data":{"norad_id":45985,"epoch":"2026-05-25T07:37:20.913888Z","epoch_age_seconds":54392,"freshness":"FRESH","line1":"1 45985U 20053A   26145.31760317 -.00000283  00000+0  00000+0 0  9999","line2":"2 45985   0.0196 294.7437 0000476  21.3678 137.6379  1.00274435 21420","mean_motion":1.00274435,"eccentricity":4.76e-5,"inclination_deg":0.0196,"raan_deg":294.7437,"arg_perigee_deg":21.3678,"mean_anomaly_deg":137.6379,"bstar":0,"rev_number":2142,"period_min":1436.0589516161,"perigee_km":35783.845080473,"apogee_km":35787.859092234,"semimajor_km":42163.989086354,"source":"CELESTRAK","updated_at":"2026-05-25T13:38:14.095134Z"}}